SCP
0 0 0 -0 -0 -0 0 0 -0 -0 -0 0 0 0 0 0 0 0 0 0 0 0 0 0 0 0 0 0 0 0 0 0 0 1 1 1 1 1 0 0 0 0 0 0 0 0 0 1 1
0 0 -0 -0 -0 -0 0 0 -0 -0 -0 0 0 0 0 0 0 0 0 0 0 0 0 0 0 0 0 0 0 0 0 0 0 0 0 1 1 1 1 1 1 0 0 0 0 0 0 0 1
0 0 -0 -0 0 0 0 0 0 0 0 0 0 0 0 0 0 0 0 0 0 0 0 0 0 0 0 0 0 0 0 0 0 0 0 0 1 1 1 1 1 1 1 1 0 0 1 1 1
0 0 0 0 0 0 0 0 0 0 0 0 0 0 0 0 0 0 0 0 0 0 0 0 0 0 0 0 0 0 0 0 0 0 0 0 0 0 1 1 1 1 1 1 1 1 1 1 1
0 0 0 0 0 0 0 0 0 0 0 0 0 0 0 0 0 0 0 0 0 0 0 0 0 0 0 0 0 0 0 0 0 0 0 0 0 0 0 0 0 1 1 1 1 1 1 1 1
0 0 0 0 0 0 0 0 0 0 0 0 0 0 0 0 0 0 0 0 0 0 0 0 0 0 0 0 0 0 0 0 0 0 0 0 0 0 0 0 0 0 0 1 1 1 1 1 1
0 0 0 0 0 0 0 0 0 0 0 0 0 0 0 0 0 0 0 0 0 0 0 0 0 0 0 0 0 0 0 0 0 0 0 0 0 0 0 0 0 0 0 0 1 1 1 1 1
0 0 0 0 0 0 0 0 0 0 0 0 0 0 0 0 0 0 0 0 0 0 0 0 0 0 0 0 0 0 0 0 0 0 0 0 0 0 0 0 0 0 0 0 0 0 1 1 1
0 0 0 0 0 0 0 0 0 0 0 0 0 0 0 0 0 0 0 0 0 0 0 0 0 0 0 0 0 0 0 0 0 0 0 0 0 0 0 0 0 0 0 0 0 0 0 1 1
0 0 0 0 0 0 0 0 0 0 0 0 0 0 0 0 0 0 0 0 0 0 0 0 0 0 0 0 0 0 0 0 0 0 0 0 0 0 0 0 0 0 0 0 0 0 0 0 0
0 0 0 0 0 0 0 0 0 0 0 0 0 0 0 0 0 0 0 0 0 0 0 0 0 0 0 0 0 0 0 0 0 0 0 0 0 0 0 0 0 0 0 0 0 0 0 0 0
0 0 0 0 0 0 0 0 0 0 0 0 0 0 0 0 0 0 0 0 0 0 0 0 0 0 0 0 0 0 0 0 0 0 0 0 0 0 0 0 0 0 0 0 0 0 0 0 0
0 0 0 0 0 0 0 0 0 0 0 0 0 0 0 0 0 0 0 0 0 0 0 0 0 0 0 0 0 0 0 0 0 0 0 0 0 0 0 0 0 0 0 0 0 0 0 0 0
0 0 0 0 0 0 0 0 0 0 0 0 0 0 0 0 0 0 0 0 0 0 0 0 0 0 0 0 0 0 0 0 0 0 0 0 0 0 -0 -0 0 0 0 -0 -0 -0 0 0 0
0 0 0 0 0 0 0 0 0 0 0 0 0 0 0 0 0 0 0 0 0 0 0 0 0 0 0 0 0 0 0 0 0 0 0 0 0 0 0 0 0 0 0 0 0 -0 -0 -0 -0
0 0 0 0 0 0 0 0 0 0 0 0 0 0 0 0 0 0 0 0 0 0 0 0 0 0 0 0 0 0 0 0 0 0 0 0 0 0 0 0 0 0 0 0 0 0 -0 -0 -0
0 0 0 0 0 0 0 0 0 0 0 0 0 0 0 0 0 0 0 0 0 0 0 0 0 0 0 0 0 0 0 0 0 0 0 0 0 0 0 0 0 0 0 0 0 0 0 -0 -0
0 0 0 0 0 0 0 0 0 0 0 0 0 0 0 0 0 0 0 0 0 0 0 0 0 0 0 0 0 0 0 0 0 0 0 0 0 0 0 0 0 0 0 0 0 0 0 0 -0
0 0 0 0 0 0 0 0 0 0 0 0 0 0 0 0 0 0 0 0 0 0 0 0 0 0 0 0 0 0 0 0 0 0 0 0 0 0 0 0 0 0 0 0 0 0 0 0 0
0 0 0 0 0 0 0 0 0 0 0 0 0 0 0 0 0 0 0 0 0 0 0 0 0 0 0 0 0 0 0 0 0 0 0 0 0 0 0 0 0 0 0 0 0 0 0 0 0
0 0 0 0 0 0 0 0 0 0 0 0 0 0 0 0 0 0 0 0 0 0 0 0 0 0 0 0 0 0 0 0 0 0 0 0 0 0 0 0 0 0 0 0 0 0 0 0 0
0 0 0 0 0 0 0 0 0 0 0 0 0 0 0 0 0 0 0 0 0 0 0 0 0 0 0 0 0 0 0 0 0 0 0 0 0 -0 0 0 0 0 0 0 0 0 0 0 0
0 0 0 0 0 0 0 0 0 0 0 0 0 0 0 0 0 0 0 0 0 0 0 0 0 0 0 0 0 0 0 0 0 0 0 0 0 0 0 0 0 0 0 0 0 0 0 0 0
0 0 0 0 0 0 0 0 0 0 0 0 0 0 0 0 0 0 0 0 0 0 0 0 0 0 0 0 0 0 0 0 0 0 0 0 0 0 0 0 0 0 0 0 0 0 0 0 0
0 0 0 0 0 0 0 0 0 0 0 0 0 0 0 0 0 0 0 0 0 0 0 0 0 0 0 0 0 0 0 0 0 0 0 0 0 0 0 0 0 0 0 0 0 0 0 0 0
0 0 0 0 0 0 0 0 0 0 0 0 0 0 0 0 0 0 0 0 0 0 0 0 0 0 0 0 0 0 0 0 0 0 0 0 0 0 0 0 0 0 0 0 0 0 0 0 0
0 0 0 0 0 0 0 0 0 0 0 0 0 0 0 0 0 0 0 0 0 0 0 0 0 0 0 0 0 0 0 0 0 0 0 0 0 0 0 0 0 0 0 0 0 0 0 0 0
0 0 0 0 0 0 0 0 0 0 0 0 0 0 0 0 0 0 0 0 0 0 0 0 0 0 0 0 0 0 0 0 0 0 0 0 0 0 0 0 0 0 0 0 0 0 0 0 0
0 0 0 0 0 0 0 0 0 0 0 0 0 0 0 0 0 0 0 0 0 0 0 0 0 0 0 0 0 0 0 0 0 0 0 0 0 0 0 0 0 0 0 0 0 0 0 0 0
0 0 0 0 0 0 0 0 0 0 0 0 0 0 0 0 0 0 0 0 0 0 0 0 0 0 0 0 0 0 0 0 0 0 0 0 0 0 0 0 0 0 0 0 0 0 0 0 0
Wind_Speed
15 13 5 1 2 9 16 14 15 11 10 18 16 14 15 15 11 8 4 11 12 10 13 18 25 25 26 26 25 25 25 24 23 22 21 19 17 16 14 14 13 13 12 12 12 11 11 11 11
11 10 4 1 6 11 13 12 16 18 12 12 15 15 13 12 10 5 6 10 10 10 10 16 23 24 25 26 25 25 25 24 24 23 22 21 20 18 17 16 15 14 14 13 13 12 12 11 11
11 7 2 5 13 11 10 10 11 18 20 11 10 11 10 8 7 4 7 10 9 9 9 15 23 24 24 25 25 25 25 25 24 24 24 23 22 20 19 17 16 15 15 14 13 13 12 11 11
5 2 5 12 18 16 13 12 9 11 13 14 11 11 8 5 3 4 6 8 9 10 10 14 24 24 24 24 25 25 25 25 24 25 25 24 22 22 21 20 19 17 16 15 14 13 13 12 10
3 3 10 11 13 11 13 15 17 17 9 13 13 10 8 4 2 3 6 9 11 11 12 15 25 26 25 24 25 24 24 25 24 25 25 24 23 22 22 21 21 21 19 17 16 14 14 13 11
3 4 9 10 13 11 11 14 13 15 12 10 9 9 6 4 5 5 8 9 11 12 12 14 23 27 27 26 25 25 24 25 24 24 26 25 24 23 22 22 22 22 21 20 18 16 14 14 13
5 9 11 13 10 7 7 8 14 10 10 11 8 8 6 7 6 7 9 9 10 12 12 13 14 18 24 26 26 26 24 25 25 24 26 26 25 24 23 23 24 23 23 22 20 19 17 15 14
2 6 11 9 8 6 6 8 8 11 9 8 12 8 6 7 8 9 9 9 10 12 13 14 14 15 15 15 23 26 24 24 25 24 26 25 24 22 23 23 24 24 24 23 22 21 20 17 15
5 8 8 7 7 8 9 7 7 9 12 13 12 12 9 9 9 9 9 10 12 15 14 14 15 15 15 14 19 19 20 21 22 18 24 20 12 12 13 21 24 25 25 24 23 24 23 19 14
9 6 7 9 9 11 11 10 8 9 13 12 11 11 10 10 10 11 12 13 15 15 15 13 14 14 14 14 12 9 11 11 12 11 12 9 10 10 14 20 23 24 24 22 24 25 21 15 8
8 8 8 11 14 13 11 10 8 9 10 10 9 9 9 10 11 12 12 12 11 12 13 14 14 14 14 11 10 8 7 8 9 11 12 10 8 8 9 8 11 12 16 11 15 15 11 11 9
9 12 10 10 10 10 9 8 10 12 9 8 8 9 9 10 11 12 12 12 11 12 14 14 14 13 13 12 10 9 8 8 9 10 12 9 7 9 9 8 9 8 7 9 9 9 12 13 13
10 9 12 13 14 14 14 12 11 10 8 7 8 9 9 9 9 10 10 11 12 13 14 13 13 13 12 11 9 10 9 9 10 9 9 10 8 9 10 9 9 10 8 9 10 10 12 12 13
12 15 13 11 10 8 12 10 7 7 7 6 7 7 7 8 10 10 11 12 12 12 13 13 14 14 14 12 10 9 9 8 9 8 10 11 9 9 9 10 9 9 9 9 9 11 10 10 10
15 12 9 7 7 8 8 8 7 7 5 5 6 7 8 8 9 9 9 10 10 11 12 14 14 15 15 14 12 11 9 10 9 9 10 11 12 10 10 9 9 9 10 11 9 10 8 10 11
9 8 7 8 9 7 5 4 9 5 3 4 4 6 6 7 9 8 9 9 10 11 12 13 14 15 14 13 11 10 10 10 9 9 8 12 14 13 10 9 9 10 10 9 10 9 10 9 10
7 7 7 7 5 5 6 5 9 5 3 3 4 5 6 7 8 8 9 9 10 11 12 13 12 13 13 12 10 10 10 10 9 8 8 11 13 14 12 10 9 11 9 9 11 11 10 11 11
3 4 5 8 4 3 5 7 8 5 3 2 4 5 6 7 8 8 8 9 10 10 11 12 12 13 13 10 9 8 9 8 8 7 9 12 11 13 12 10 13 12 9 9 10 12 11 10 11
6 6 5 6 4 2 4 8 9 6 3 2 4 5 6 7 8 7 7 8 9 10 11 11 12 12 11 10 11 11 11 10 9 7 11 12 12 13 11 10 11 12 10 12 13 12 13 10 10
4 4 2 5 4 2 2 6 10 8 5 4 3 3 5 6 7 8 7 8 9 10 10 10 11 11 10 9 9 9 10 9 9 8 10 11 12 13 12 11 10 11 11 12 13 13 10 10 10
2 4 5 2 4 3 3 6 11 9 7 5 3 2 5 7 7 7 7 8 8 9 9 11 10 11 10 10 8 10 8 7 7 9 7 9 12 12 11 10 10 10 10 10 13 13 13 11 10
3 5 5 3 2 4 6 3 8 10 7 6 3 5 6 6 6 7 7 8 8 8 8 9 10 10 9 9 10 12 11 10 11 9 9 11 12 12 12 11 11 10 9 11 11 12 12 12 10
4 3 5 5 4 4 5 4 4 8 7 7 4 6 6 6 7 8 8 8 7 7 7 7 9 9 9 9 10 10 9 9 9 10 11 10 10 11 12 12 11 11 10 11 12 12 12 10 10
5 6 6 4 3 5 4 5 3 2 5 6 6 6 6 7 7 7 7 7 6 7 7 7 8 9 9 9 9 10 11 11 12 12 10 10 9 8 10 14 11 12 10 11 12 12 13 12 12
4 6 2 2 4 3 1 0 6 7 10 8 5 4 6 7 7 7 7 7 7 7 8 8 9 9 9 9 9 10 10 10 11 11 11 11 10 9 10 13 12 11 11 12 12 13 13 13 12
5 4 3 4 5 6 3 4 6 8 6 3 3 6 7 7 6 6 7 6 7 7 8 8 9 9 9 9 9 9 9 7 7 9 10 10 9 9 11 12 13 13 14 14 12 12 13 12 12
6 4 1 3 7 6 1 7 5 6 4 2 5 7 7 6 6 6 6 6 6 7 7 8 9 10 10 10 10 9 9 9 9 10 9 8 9 11 12 13 13 13 14 14 13 11 13 13 12
2 3 3 3 5 6 7 4 4 5 2 4 5 6 6 6 6 6 6 6 6 6 7 7 8 9 9 9 10 12 10 10 9 9 10 10 11 12 13 13 13 14 14 14 12 13 13 14 13
1 2 2 3 4 3 6 1 5 6 4 3 5 6 6 6 6 6 6 6 6 7 7 7 8 9 9 10 10 10 10 10 10 9 10 10 10 12 12 13 14 15 15 14 13 14 16 16 14
2 3 3 2 5 3 5 0 5 5 3 4 5 6 6 6 6 6 7 7 7 7 8 8 8 9 10 10 10 11 11 11 10 11 11 12 12 11 12 13 14 15 15 15 14 16 17 16 13
Wind_Direction
308 294 269 262 68 70 66 53 44 51 79 61 56 66 74 54 38 75 312 327 348 359 11 9 16 20 23 23 22 21 20 18 16 12 7 2 355 348 340 335 331 329 328 327 325 320 310 301 297
300 298 303 281 86 82 69 62 54 39 80 88 58 54 63 63 38 53 341 336 352 5 18 14 18 22 24 24 24 22 20 19 16 13 9 5 1 356 349 342 337 332 328 323 319 315 308 296 288
274 269 282 49 58 58 62 46 84 64 43 63 74 49 51 38 29 11 342 340 358 7 19 17 18 21 23 22 22 21 19 18 16 14 10 6 3 1 357 351 345 337 331 323 316 311 308 299 287
287 256 73 75 73 47 43 28 22 90 55 48 79 73 73 37 5 347 347 357 10 12 12 17 18 18 19 20 18 18 16 15 14 13 10 7 5 4 3 0 355 348 338 329 319 312 307 302 291
226 87 81 84 79 64 42 44 48 56 59 58 76 88 83 59 29 18 18 16 17 16 12 13 16 14 13 14 14 12 12 11 10 11 8 5 4 4 4 5 1 355 347 338 326 314 308 302 295
256 104 95 93 102 98 63 37 55 62 57 41 89 101 78 51 26 37 36 28 24 16 14 12 13 11 8 7 9 7 8 7 5 8 6 2 0 1 2 3 1 356 351 345 336 322 311 302 295
46 81 102 112 108 85 74 62 44 54 45 13 12 90 83 41 25 36 44 31 26 20 14 12 12 9 5 1 3 2 2 5 1 4 4 0 357 358 358 0 356 353 350 346 341 333 320 306 294
339 97 101 100 94 95 78 69 54 42 48 26 27 66 64 32 31 29 36 32 23 22 16 13 9 8 2 354 359 358 358 2 359 1 1 359 355 354 354 356 350 350 348 345 343 341 331 315 298
23 67 51 35 96 112 127 108 84 79 78 68 64 70 64 41 34 30 27 24 21 20 15 13 7 6 1 353 355 353 354 358 356 358 357 356 348 347 350 351 346 348 345 344 347 343 336 328 305
38 68 54 36 78 100 94 95 110 97 80 79 76 67 59 49 34 30 26 20 17 15 11 12 5 3 0 355 352 346 349 352 351 352 351 351 348 344 352 345 343 345 341 346 346 343 340 338 323
54 88 93 70 84 96 94 82 74 104 67 63 66 63 51 49 40 30 26 22 17 12 9 9 4 2 0 354 350 346 346 348 347 347 347 348 346 343 349 341 337 338 338 344 342 341 335 329 324
78 75 96 104 98 94 90 80 61 68 88 81 70 62 55 46 42 32 23 19 14 12 9 7 3 1 359 353 348 345 345 346 344 342 346 348 348 348 345 339 332 334 334 339 341 331 328 329 324
85 86 76 79 78 84 89 89 94 96 101 97 84 68 58 51 42 38 25 20 15 11 6 4 359 1 357 352 348 347 343 344 341 339 343 349 354 346 343 335 333 329 334 340 332 326 329 328 324
108 112 114 112 111 108 108 111 105 118 126 116 98 80 64 56 49 36 26 19 13 8 5 2 359 1 357 353 349 344 341 341 339 338 342 350 355 342 341 332 330 329 338 334 326 325 326 324 325
124 119 127 137 126 140 137 109 115 137 149 129 107 96 79 62 57 43 31 22 13 8 5 3 359 0 356 350 350 345 340 342 339 337 340 353 351 339 339 331 328 332 335 330 327 324 327 329 329
162 152 148 161 160 169 251 153 140 155 147 100 77 72 66 64 59 48 34 24 16 10 7 4 1 358 354 348 350 342 342 342 338 337 343 352 345 342 339 332 328 335 336 330 330 336 337 330 325
200 218 137 153 173 164 229 137 148 160 159 127 83 63 52 49 53 49 34 26 17 12 8 2 360 357 351 348 347 339 341 338 335 337 344 347 342 343 339 330 333 338 335 334 337 337 332 329 325
341 320 117 134 132 214 233 126 143 164 182 125 78 58 49 38 42 46 34 28 19 13 9 0 358 356 350 349 343 337 338 335 331 336 345 343 340 340 335 331 337 336 333 335 332 330 332 327 323
332 343 60 102 117 251 233 151 157 161 188 101 59 38 44 38 31 36 33 30 18 11 8 359 357 353 351 351 344 340 339 335 331 339 343 338 339 337 332 337 335 334 333 331 330 331 326 326 323
325 328 76 133 129 256 244 182 162 167 164 80 33 34 43 39 22 20 23 27 16 10 5 356 355 350 350 348 338 335 330 327 329 338 332 333 337 335 336 338 336 334 330 328 330 328 324 323 331
339 14 355 2 130 233 264 229 169 161 138 146 208 101 55 40 20 10 17 24 15 12 4 354 350 347 347 345 338 336 327 328 334 334 329 334 336 333 331 334 335 330 329 326 327 325 326 322 319
10 31 331 299 251 228 177 271 161 159 164 185 183 78 54 44 22 14 21 20 13 11 2 351 345 343 344 345 341 340 339 336 334 331 327 333 333 330 331 335 335 329 327 323 322 326 320 316 314
333 330 286 275 258 266 190 244 116 144 184 182 110 65 49 41 28 23 24 18 12 10 358 346 341 341 342 344 340 337 333 329 328 327 328 331 327 327 332 335 333 327 322 321 320 319 315 311 307
290 269 234 251 246 261 203 185 130 181 164 112 70 49 39 35 29 23 18 13 9 7 355 343 341 340 342 342 339 337 332 331 330 332 331 329 326 327 332 333 330 324 321 320 319 316 312 308 303
284 315 310 272 229 222 82 187 92 72 71 76 62 44 44 35 26 15 8 5 5 360 351 344 343 340 341 341 339 334 331 330 328 330 328 327 328 330 328 331 327 324 321 320 321 319 313 307 304
319 339 17 315 307 313 206 110 108 101 99 110 84 62 45 32 25 16 8 8 3 354 349 345 341 338 339 339 337 331 330 327 324 325 323 324 325 324 324 328 324 323 322 323 322 319 316 311 308
338 35 38 278 278 276 133 95 133 132 156 105 50 49 37 29 25 14 7 9 360 353 349 343 339 337 337 338 335 328 329 325 324 323 320 322 323 324 327 324 325 324 323 323 323 320 317 313 308
346 337 316 302 324 307 298 103 161 164 112 43 34 41 28 28 25 11 7 4 358 353 345 341 337 334 334 337 334 333 326 323 324 322 323 324 323 323 323 325 327 327 325 324 323 321 317 315 311
204 225 275 278 250 268 295 14 95 110 86 40 40 47 34 32 24 11 6 359 352 350 344 339 336 337 336 334 329 325 323 324 325 323 322 322 320 323 325 327 328 328 326 326 321 320 318 315 311
335 343 337 307 308 296 290 117 125 128 118 74 59 54 45 40 27 14 4 353 349 347 343 340 339 340 336 332 327 324 324 326 325 323 323 322 320 321 325 328 328 327 327 323 320 319 319 315 313